Location: Carbonear
(47.7333°N, 53.2500°W)
Time: 08:45:05
(UTC+00:00)

RS-44 - Visible Passes

Search period start: 26 November 2022 00:00
Search period end: 06 December 2022 00:00
Orbit: 1175 x 1510 km, 82.5° (Epoch: 25 November)

Date Brightness Start Highest point End Pass type
(mag) Time Alt. Az. Time Alt. Az. Time Alt. Az.
26 Nov ? 06:25:42 10° SE 06:32:28 31° E 06:39:38 10° NNE visible
26 Nov ? 08:17:21 10° SSW 08:25:17 65° WNW 08:33:51 10° N visible
26 Nov ? 10:15:56 10° W 10:20:50 17° NW 10:25:55 10° NNW visible
27 Nov ? 06:48:20 10° SSE 06:55:51 47° E 07:03:55 10° NNE visible
27 Nov ? 08:41:44 10° SW 08:49:22 45° WNW 08:57:35 10° N visible
27 Nov ? 20:24:17 10° NNW 20:30:49 24° WNW 20:37:16 10° SW visible
28 Nov ? 05:23:35 10° ESE 05:27:46 15° ENE 05:32:03 10° NE visible
28 Nov ? 07:14:08 24° S 07:19:25 69° E 07:27:59 10° NNE visible
28 Nov ? 09:07:09 12° WSW 09:13:40 31° WNW 09:21:11 10° N visible
28 Nov ? 20:49:24 10° NW 20:53:56 15° WNW 20:58:26 10° WSW visible
29 Nov ? 05:48:10 20° ESE 05:50:51 24° ENE 05:57:11 10° NNE visible
29 Nov ? 07:40:54 54° SSW 07:43:10 84° W 07:51:55 10° N visible
29 Nov ? 09:33:38 14° W 09:38:10 22° NW 09:44:35 10° N visible
30 Nov ? 06:13:28 35° E 06:14:07 35° E 06:21:41 10° NNE visible
30 Nov ? 08:06:10 56° W 08:07:07 59° WNW 08:15:44 10° N visible
30 Nov ? 09:58:51 11° WNW 10:02:53 15° NW 10:07:36 10° NNW visible
01 Dec ? 04:45:39 10° ENE 04:46:23 10° ENE 04:47:35 10° ENE visible
01 Dec ? 06:38:18 51° ENE 06:38:18 51° ENE 06:45:54 10° NNE visible
01 Dec ? 08:30:58 41° WNW 08:31:16 41° WNW 08:39:26 10° N visible
01 Dec ? 10:26:46 10° NW 10:27:51 10° NW 10:28:56 10° NNW visible
01 Dec ? 20:06:25 10° NNW 20:12:29 21° WNW 20:18:27 10° WSW visible
02 Dec ? 05:10:13 17° ENE 05:10:13 17° ENE 05:14:27 10° NE visible
02 Dec ? 07:02:53 60° NNE 07:02:53 60° NNE 07:09:56 10° NNE visible
02 Dec ? 08:55:32 29° WNW 08:55:37 29° WNW 09:03:00 10° N visible
02 Dec ? 20:31:53 10° NW 20:35:32 13° WNW 20:39:09 10° W visible
03 Dec ? 05:34:39 24° ENE 05:34:39 24° ENE 05:39:19 10° NNE visible
03 Dec ? 07:27:17 54° N 07:27:17 54° N 07:33:50 10° N visible
03 Dec ? 09:19:56 20° WNW 09:20:11 20° NW 09:26:20 10° N visible
04 Dec ? 05:58:57 30° NE 05:58:57 30° NE 06:03:43 10° NNE visible
04 Dec ? 07:51:35 42° NNW 07:51:35 42° NNW 07:57:37 10° N visible
04 Dec ? 09:44:13 14° NW 09:44:59 14° NW 09:49:13 10° NNW visible
05 Dec ? 04:30:31 11° NE 04:30:31 11° NE 04:31:02 10° NE visible
05 Dec ? 06:23:10 34° NNE 06:23:10 34° NNE 06:27:52 10° NNE visible
05 Dec ? 08:15:47 32° NNW 08:15:47 32° NNW 08:21:17 10° N visible
